Location: Holyhead Bay
(53.3667°N, 4.6667°W)
Time: 22:43:55
(UTC+00:00)

ADEOS Rocket - Pass Details

Date: 25 April 2021
Orbit: 859 x 1306 km, 98.7° (Epoch: 14 May)

Event Time Altitude Azimuth Distance (km) Brightness Sun altitude
Exits shadow 02:35:50 - 159° (SSE) 3,611 5.7 -17.1°
Reaches altitude 10° 02:37:39 10° 159° (SSE) 2,939 5.2 -16.9°
Maximum altitude 02:44:25 86° 73° (ENE) 1,189 3.4 -16.3°
Drops below altitude 10° 02:51:57 10° 345° (NNW) 3,247 6.2 -15.6°
Sets 02:54:43 0° 345° (NNW) 4,255 6.9 -15.3°
